Time,TemperatureF,DewpointF,PressureIn,WindDirection,WindDirectionDegrees,WindSpeedMPH,WindSpeedGustMPH,Humidity,HourlyPrecipIn,Conditions,Clouds,dailyrainin,SoftwareType,DateUTC
2013-07-22 00:50:00,69.8,61.7,29.99,NE,45,4.5,4.5,75,0.00,,,0.00,WUHU21623XXSP,2013-07-22 04:50:00,
2013-07-22 01:50:00,68.7,60.6,29.98,North,0,0.0,0.0,75,0.00,,,0.00,WUHU21623XXSP,2013-07-22 05:50:00,
2013-07-22 02:50:00,67.8,60.1,29.96,SSE,158,0.9,0.9,76,0.00,,,0.00,WUHU21623XXSP,2013-07-22 06:50:00,
2013-07-22 03:50:00,66.4,60.8,29.95,North,0,0.0,0.0,82,0.00,,,0.00,WUHU21623XXSP,2013-07-22 07:50:00,
2013-07-22 04:50:00,65.8,60.9,29.93,North,0,0.0,0.0,84,0.00,,,0.00,WUHU21623XXSP,2013-07-22 08:50:00,
2013-07-22 05:50:00,65.7,61.7,29.92,North,0,0.0,0.0,87,0.00,,,0.00,WUHU21623XXSP,2013-07-22 09:50:00,
2013-07-22 06:50:00,65.8,61.8,29.92,North,0,0.0,0.0,87,0.00,,,0.00,WUHU21623XXSP,2013-07-22 10:50:00,
2013-07-22 07:50:00,66.7,63.0,29.92,South,180,1.8,1.8,88,0.00,,,0.00,WUHU21623XXSP,2013-07-22 11:50:00,
2013-07-22 08:50:00,68.4,65.0,29.92,North,0,0.0,0.0,89,0.00,,,0.00,WUHU21623XXSP,2013-07-22 12:50:00,
2013-07-22 09:50:00,70.5,66.8,29.92,North,0,0.0,0.0,88,0.00,,,0.00,WUHU21623XXSP,2013-07-22 13:50:00,
2013-07-22 10:50:00,73.2,68.8,29.91,North,0,0.0,0.0,86,0.00,,,0.00,WUHU21623XXSP,2013-07-22 14:50:00,
2013-07-22 11:50:00,76.6,70.8,29.91,North,0,0.0,0.0,82,0.00,,,0.00,WUHU21623XXSP,2013-07-22 15:50:00,
2013-07-22 12:50:00,77.0,69.4,29.90,North,0,0.0,0.0,77,0.00,,,0.00,WUHU21623XXSP,2013-07-22 16:50:00,
2013-07-22 13:50:00,79.0,69.8,29.88,North,0,0.0,0.0,73,0.00,,,0.00,WUHU21623XXSP,2013-07-22 17:50:00,
2013-07-22 14:19:00,79.5,69.5,29.87,South,180,4.5,4.5,73,0.00,,,0.00,WUHU21623XXSP,2013-07-22 18:19:00,
2013-07-22 14:24:00,79.5,69.3,29.87,North,0,0.0,0.0,71,0.00,,,0.00,WUHU21623XXSP,2013-07-22 18:24:00,
2013-07-22 14:29:00,79.5,69.5,29.87,North,0,0.0,0.0,72,0.00,,,0.00,WUHU21623XXSP,2013-07-22 18:29:00,
2013-07-22 14:34:00,79.5,69.7,29.87,South,180,1.8,1.8,71,0.00,,,0.00,WUHU21623XXSP,2013-07-22 18:34:00,
2013-07-22 14:42:00,79.2,68.1,29.87,South,180,1.6,1.6,68,0.00,,,0.00,WUHU21623XXSP,2013-07-22 18:42:00,
2013-07-22 14:48:00,79.2,67.7,29.87,North,0,0.0,0.0,68,0.00,,,0.00,WUHU21623XXSP,2013-07-22 18:48:00,
2013-07-22 14:53:00,79.0,67.9,29.88,North,0,0.0,0.0,69,0.00,,,0.00,WUHU21623XXSP,2013-07-22 18:53:00,
2013-07-22 14:58:00,78.6,67.6,29.87,North,0,0.0,0.0,69,0.00,,,0.00,WUHU21623XXSP,2013-07-22 18:58:00,
2013-07-22 15:03:00,78.6,67.1,29.87,North,0,0.0,0.0,68,0.00,,,0.00,WUHU21623XXSP,2013-07-22 19:03:00,
2013-07-22 15:08:00,78.6,67.6,29.87,North,0,0.0,0.0,69,0.00,,,0.00,WUHU21623XXSP,2013-07-22 19:08:00,
2013-07-22 15:13:00,78.4,67.9,29.87,North,0,0.0,0.0,70,0.00,,,0.00,WUHU21623XXSP,2013-07-22 19:13:00,
2013-07-22 15:18:00,78.1,67.1,29.87,North,0,0.0,0.0,69,0.00,,,0.00,WUHU21623XXSP,2013-07-22 19:18:00,
2013-07-22 15:23:00,78.1,67.1,29.86,North,0,0.0,0.0,69,0.00,,,0.00,WUHU21623XXSP,2013-07-22 19:23:00,
2013-07-22 15:28:00,77.9,66.9,29.87,North,0,0.0,0.0,69,0.00,,,0.00,WUHU21623XXSP,2013-07-22 19:28:00,
2013-07-22 15:33:00,77.9,66.5,29.87,North,0,0.0,0.0,68,0.00,,,0.00,WUHU21623XXSP,2013-07-22 19:33:00,
2013-07-22 15:39:00,77.7,66.8,29.86,North,0,0.0,0.0,69,0.00,,,0.00,WUHU21623XXSP,2013-07-22 19:39:00,
2013-07-22 15:44:00,77.7,67.2,29.86,North,0,0.0,0.0,70,0.00,,,0.00,WUHU21623XXSP,2013-07-22 19:44:00,
2013-07-22 15:49:00,77.7,67.2,29.86,ESE,112,1.6,1.6,70,0.00,,,0.00,WUHU21623XXSP,2013-07-22 19:49:00,
2013-07-22 15:54:00,77.7,67.6,29.86,SE,135,1.1,1.1,71,0.00,,,0.00,WUHU21623XXSP,2013-07-22 19:54:00,
2013-07-22 15:59:00,77.7,67.6,29.85,North,0,0.0,0.0,71,0.00,,,0.00,WUHU21623XXSP,2013-07-22 19:59:00,
2013-07-22 16:04:00,77.7,67.2,29.85,ESE,112,1.1,1.1,70,0.00,,,0.00,WUHU21623XXSP,2013-07-22 20:04:00,
2013-07-22 16:09:00,77.7,68.0,29.85,ESE,112,1.1,1.1,72,0.00,,,0.00,WUHU21623XXSP,2013-07-22 20:09:00,
2013-07-22 16:15:00,77.9,68.1,29.86,North,0,0.0,0.0,72,0.00,,,0.00,WUHU21623XXSP,2013-07-22 20:15:00,
2013-07-22 16:20:00,78.1,67.5,29.86,North,0,0.0,0.0,70,0.00,,,0.00,WUHU21623XXSP,2013-07-22 20:20:00,
2013-07-22 16:25:00,78.3,67.7,29.86,North,0,0.0,0.0,70,0.00,,,0.00,WUHU21623XXSP,2013-07-22 20:25:00,
2013-07-22 16:30:00,78.4,68.2,29.85,SSE,157,0.4,0.4,71,0.00,,,0.00,WUHU21623XXSP,2013-07-22 20:30:00,
2013-07-22 16:35:00,78.6,68.0,29.85,North,0,0.0,0.0,70,0.00,,,0.00,WUHU21623XXSP,2013-07-22 20:35:00,
2013-07-22 16:40:00,78.6,68.0,29.85,North,0,0.0,0.0,70,0.00,,,0.00,WUHU21623XXSP,2013-07-22 20:40:00,
2013-07-22 16:45:00,78.4,67.9,29.85,North,0,0.0,0.0,70,0.00,,,0.00,WUHU21623XXSP,2013-07-22 20:45:00,
2013-07-22 16:50:00,78.4,67.9,29.85,North,0,0.0,0.0,70,0.00,,,0.00,WUHU21623XXSP,2013-07-22 20:50:00,
2013-07-22 16:55:00,78.4,67.4,29.85,North,0,0.0,0.0,69,0.00,,,0.00,WUHU21623XXSP,2013-07-22 20:55:00,
2013-07-22 17:00:00,78.1,67.5,29.84,North,0,0.0,0.0,70,0.00,,,0.00,WUHU21623XXSP,2013-07-22 21:00:00,
2013-07-22 17:05:00,78.3,67.2,29.84,North,0,0.0,0.0,69,0.00,,,0.00,WUHU21623XXSP,2013-07-22 21:05:00,
2013-07-22 17:10:00,78.4,67.4,29.84,North,0,0.0,0.0,69,0.00,,,0.00,WUHU21623XXSP,2013-07-22 21:10:00,
2013-07-22 17:15:00,78.1,67.5,29.84,North,0,0.0,0.0,70,0.00,,,0.00,WUHU21623XXSP,2013-07-22 21:15:00,
2013-07-22 17:20:00,78.1,67.5,29.83,North,0,0.0,0.0,70,0.00,,,0.00,WUHU21623XXSP,2013-07-22 21:20:00,
2013-07-22 17:25:00,77.9,66.9,29.83,North,0,0.0,0.0,69,0.00,,,0.00,WUHU21623XXSP,2013-07-22 21:25:00,
2013-07-22 17:30:00,77.9,66.9,29.83,North,0,0.0,0.0,69,0.00,,,0.00,WUHU21623XXSP,2013-07-22 21:30:00,
2013-07-22 17:35:00,78.1,67.1,29.83,North,0,0.0,0.0,69,0.00,,,0.00,WUHU21623XXSP,2013-07-22 21:35:00,
2013-07-22 17:40:00,78.1,67.1,29.83,North,0,0.0,0.0,69,0.00,,,0.00,WUHU21623XXSP,2013-07-22 21:40:00,
2013-07-22 17:45:00,78.1,67.1,29.83,North,0,0.0,0.0,69,0.00,,,0.00,WUHU21623XXSP,2013-07-22 21:45:00,
2013-07-22 17:50:00,78.1,67.1,29.83,South,180,2.2,2.2,69,0.00,,,0.00,WUHU21623XXSP,2013-07-22 21:50:00,
2013-07-22 17:55:00,78.1,67.1,29.83,North,0,0.0,0.0,69,0.00,,,0.00,WUHU21623XXSP,2013-07-22 21:55:00,
2013-07-22 18:00:00,78.1,67.1,29.83,North,0,0.0,0.0,69,0.00,,,0.00,WUHU21623XXSP,2013-07-22 22:00:00,
2013-07-22 18:05:00,78.1,67.1,29.83,North,0,0.0,0.0,69,0.00,,,0.00,WUHU21623XXSP,2013-07-22 22:05:00,
2013-07-22 18:10:00,78.1,67.1,29.82,North,0,0.0,0.0,68,0.00,,,0.00,WUHU21623XXSP,2013-07-22 22:10:00,
2013-07-22 18:15:00,78.1,66.2,29.82,SSW,202,1.1,1.1,67,0.00,,,0.00,WUHU21623XXSP,2013-07-22 22:15:00,
2013-07-22 18:20:00,78.1,66.2,29.82,North,0,0.0,0.0,67,0.00,,,0.00,WUHU21623XXSP,2013-07-22 22:20:00,
2013-07-22 18:25:00,78.1,66.7,29.81,North,0,0.0,0.0,68,0.00,,,0.00,WUHU21623XXSP,2013-07-22 22:25:00,
2013-07-22 18:30:00,78.1,66.7,29.81,North,0,0.0,0.0,68,0.00,,,0.00,WUHU21623XXSP,2013-07-22 22:30:00,
2013-07-22 18:35:00,78.1,66.7,29.81,North,0,0.0,0.0,68,0.00,,,0.00,WUHU21623XXSP,2013-07-22 22:35:00,
2013-07-22 18:40:00,78.1,66.2,29.81,North,0,0.0,0.0,67,0.00,,,0.00,WUHU21623XXSP,2013-07-22 22:40:00,
2013-07-22 18:45:00,77.9,66.2,29.80,SSE,157,1.8,1.8,67,0.00,,,0.00,WUHU21623XXSP,2013-07-22 22:45:00,
2013-07-22 18:50:00,78.1,66.2,29.80,North,0,0.0,0.0,67,0.00,,,0.00,WUHU21623XXSP,2013-07-22 22:50:00,
2013-07-22 18:55:00,77.9,66.0,29.81,North,0,0.0,0.0,67,0.00,,,0.00,WUHU21623XXSP,2013-07-22 22:55:00,
2013-07-22 19:00:00,77.7,66.0,29.80,North,0,0.0,0.0,67,0.00,,,0.00,WUHU21623XXSP,2013-07-22 23:00:00,
2013-07-22 19:05:00,77.7,65.9,29.80,North,0,0.0,0.0,67,0.00,,,0.00,WUHU21623XXSP,2013-07-22 23:05:00,
2013-07-22 19:10:00,77.7,65.9,29.80,North,0,0.0,0.0,67,0.00,,,0.00,WUHU21623XXSP,2013-07-22 23:10:00,
2013-07-22 19:15:00,77.5,66.1,29.80,North,0,0.0,0.0,68,0.00,,,0.00,WUHU21623XXSP,2013-07-22 23:15:00,
2013-07-22 19:20:00,77.4,65.5,29.80,North,0,0.0,0.0,67,0.00,,,0.00,WUHU21623XXSP,2013-07-22 23:20:00,
2013-07-22 19:25:00,77.2,65.8,29.80,North,0,0.0,0.0,68,0.00,,,0.00,WUHU21623XXSP,2013-07-22 23:25:00,
2013-07-22 19:30:00,77.2,65.8,29.80,North,0,0.0,0.0,68,0.00,,,0.00,WUHU21623XXSP,2013-07-22 23:30:00,
2013-07-22 19:35:00,77.0,65.2,29.80,North,0,0.0,0.0,67,0.00,,,0.00,WUHU21623XXSP,2013-07-22 23:35:00,
2013-07-22 19:40:00,76.8,65.5,29.80,North,0,0.0,0.0,68,0.00,,,0.00,WUHU21623XXSP,2013-07-22 23:40:00,
2013-07-22 19:45:00,76.6,65.5,29.80,North,0,0.0,0.0,68,0.00,,,0.00,WUHU21623XXSP,2013-07-22 23:45:00,
2013-07-22 19:50:00,76.6,65.3,29.80,North,0,0.0,0.0,68,0.00,,,0.00,WUHU21623XXSP,2013-07-22 23:50:00,
2013-07-22 19:55:00,76.5,65.1,29.80,North,0,0.0,0.0,68,0.00,,,0.00,WUHU21623XXSP,2013-07-22 23:55:00,
2013-07-22 20:00:00,76.3,64.9,29.80,North,0,0.0,0.0,68,0.00,,,0.00,WUHU21623XXSP,2013-07-23 00:00:00,
2013-07-22 20:05:00,76.1,64.8,29.80,North,0,0.0,0.0,68,0.00,,,0.00,WUHU21623XXSP,2013-07-23 00:05:00,
2013-07-22 20:10:00,75.9,65.0,29.80,North,0,0.0,0.0,69,0.00,,,0.00,WUHU21623XXSP,2013-07-23 00:10:00,
2013-07-22 20:15:00,75.7,65.0,29.80,North,0,0.0,0.0,69,0.00,,,0.00,WUHU21623XXSP,2013-07-23 00:15:00,
2013-07-22 20:20:00,75.6,64.8,29.80,North,0,0.0,0.0,69,0.00,,,0.00,WUHU21623XXSP,2013-07-23 00:20:00,
2013-07-22 20:25:00,75.4,64.9,29.80,North,0,0.0,0.0,70,0.00,,,0.00,WUHU21623XXSP,2013-07-23 00:25:00,
2013-07-22 20:30:00,75.0,64.6,29.80,North,0,0.0,0.0,70,0.00,,,0.00,WUHU21623XXSP,2013-07-23 00:30:00,
2013-07-22 20:35:00,74.8,64.8,29.80,North,0,0.0,0.0,71,0.00,,,0.00,WUHU21623XXSP,2013-07-23 00:35:00,
2013-07-22 20:40:00,74.5,64.5,29.80,North,0,0.0,0.0,71,0.00,,,0.00,WUHU21623XXSP,2013-07-23 00:40:00,
2013-07-22 20:45:00,74.3,64.3,29.80,North,0,0.0,0.0,71,0.00,,,0.00,WUHU21623XXSP,2013-07-23 00:45:00,
2013-07-22 20:50:00,74.1,64.3,29.79,North,0,0.0,0.0,72,0.00,,,0.00,WUHU21623XXSP,2013-07-23 00:50:00,
2013-07-22 20:55:00,73.9,64.4,29.80,North,0,0.0,0.0,72,0.00,,,0.00,WUHU21623XXSP,2013-07-23 00:55:00,
2013-07-22 21:00:00,73.6,64.1,29.80,North,0,0.0,0.0,72,0.00,,,0.00,WUHU21623XXSP,2013-07-23 01:00:00,
2013-07-22 21:05:00,73.4,64.3,29.80,North,0,0.0,0.0,73,0.00,,,0.00,WUHU21623XXSP,2013-07-23 01:05:00,
2013-07-22 21:10:00,73.2,64.1,29.80,North,0,0.0,0.0,74,0.00,,,0.00,WUHU21623XXSP,2013-07-23 01:10:00,
2013-07-22 21:15:00,73.0,64.3,29.80,North,0,0.0,0.0,74,0.00,,,0.00,WUHU21623XXSP,2013-07-23 01:15:00,
2013-07-22 21:20:00,72.9,64.1,29.80,North,0,0.0,0.0,74,0.00,,,0.00,WUHU21623XXSP,2013-07-23 01:20:00,
2013-07-22 21:25:00,72.5,64.1,29.80,North,0,0.0,0.0,75,0.00,,,0.00,WUHU21623XXSP,2013-07-23 01:25:00,
2013-07-22 21:30:00,72.3,64.0,29.80,North,0,0.0,0.0,75,0.00,,,0.00,WUHU21623XXSP,2013-07-23 01:30:00,
2013-07-22 21:35:00,72.3,64.0,29.80,North,0,0.0,0.0,75,0.00,,,0.00,WUHU21623XXSP,2013-07-23 01:35:00,
2013-07-22 21:40:00,72.1,64.1,29.80,North,0,0.0,0.0,76,0.00,,,0.00,WUHU21623XXSP,2013-07-23 01:40:00,
2013-07-22 21:45:00,72.0,64.0,29.81,North,0,0.0,0.0,76,0.00,,,0.00,WUHU21623XXSP,2013-07-23 01:45:00,
2013-07-22 21:50:00,71.8,63.8,29.81,North,0,0.0,0.0,76,0.00,,,0.00,WUHU21623XXSP,2013-07-23 01:50:00,
2013-07-22 21:55:00,71.4,63.4,29.81,North,0,0.0,0.0,76,0.00,,,0.00,WUHU21623XXSP,2013-07-23 01:55:00,
2013-07-22 22:00:00,71.4,63.4,29.82,North,0,0.0,0.0,76,0.00,,,0.00,WUHU21623XXSP,2013-07-23 02:00:00,
2013-07-22 22:05:00,71.4,63.4,29.81,North,0,0.0,0.0,76,0.00,,,0.00,WUHU21623XXSP,2013-07-23 02:05:00,
2013-07-22 22:10:00,71.2,63.6,29.82,North,0,0.0,0.0,77,0.00,,,0.00,WUHU21623XXSP,2013-07-23 02:10:00,
2013-07-22 22:15:00,70.9,63.3,29.82,North,0,0.0,0.0,77,0.00,,,0.00,WUHU21623XXSP,2013-07-23 02:15:00,
2013-07-22 22:20:00,70.9,63.3,29.82,North,0,0.0,0.0,77,0.00,,,0.00,WUHU21623XXSP,2013-07-23 02:20:00,
2013-07-22 22:25:00,70.7,63.5,29.81,North,0,0.0,0.0,78,0.00,,,0.00,WUHU21623XXSP,2013-07-23 02:25:00,
2013-07-22 22:30:00,70.5,63.3,29.81,North,0,0.0,0.0,78,0.00,,,0.00,WUHU21623XXSP,2013-07-23 02:30:00,
2013-07-22 22:35:00,70.5,63.3,29.81,North,0,0.0,0.0,78,0.00,,,0.00,WUHU21623XXSP,2013-07-23 02:35:00,
2013-07-22 22:40:00,70.3,63.1,29.81,North,0,0.0,0.0,78,0.00,,,0.00,WUHU21623XXSP,2013-07-23 02:40:00,
2013-07-22 22:45:00,70.2,63.3,29.81,North,0,0.0,0.0,79,0.00,,,0.00,WUHU21623XXSP,2013-07-23 02:45:00,
2013-07-22 22:50:00,70.0,63.1,29.81,North,0,0.0,0.0,79,0.00,,,0.00,WUHU21623XXSP,2013-07-23 02:50:00,
2013-07-22 22:55:00,70.0,63.1,29.80,North,0,0.0,0.0,79,0.00,,,0.00,WUHU21623XXSP,2013-07-23 02:55:00,
2013-07-22 23:00:00,69.6,62.9,29.80,North,0,0.0,0.0,79,0.00,,,0.00,WUHU21623XXSP,2013-07-23 03:00:00,
2013-07-22 23:05:00,69.6,63.2,29.80,North,0,0.0,0.0,80,0.00,,,0.00,WUHU21623XXSP,2013-07-23 03:05:00,
2013-07-22 23:10:00,69.6,63.2,29.80,North,0,0.0,0.0,80,0.00,,,0.00,WUHU21623XXSP,2013-07-23 03:10:00,
2013-07-22 23:15:00,69.6,63.2,29.80,North,0,0.0,0.0,80,0.00,,,0.00,WUHU21623XXSP,2013-07-23 03:15:00,
2013-07-22 23:20:00,69.4,63.0,29.80,North,0,0.0,0.0,80,0.00,,,0.00,WUHU21623XXSP,2013-07-23 03:20:00,
2013-07-22 23:25:00,69.4,63.0,29.81,North,0,0.0,0.0,80,0.00,,,0.00,WUHU21623XXSP,2013-07-23 03:25:00,
2013-07-22 23:30:00,69.3,63.2,29.81,North,0,0.0,0.0,81,0.00,,,0.00,WUHU21623XXSP,2013-07-23 03:30:00,
2013-07-22 23:35:00,69.1,63.0,29.82,North,0,0.0,0.0,81,0.00,,,0.00,WUHU21623XXSP,2013-07-23 03:35:00,
2013-07-22 23:40:00,69.1,63.0,29.81,North,0,0.0,0.0,81,0.00,,,0.00,WUHU21623XXSP,2013-07-23 03:40:00,
2013-07-22 23:45:00,69.1,63.0,29.82,North,0,0.0,0.0,81,0.00,,,0.00,WUHU21623XXSP,2013-07-23 03:45:00,
2013-07-22 23:50:00,68.9,62.8,29.81,North,0,0.0,0.0,81,0.00,,,0.00,WUHU21623XXSP,2013-07-23 03:50:00,
2013-07-22 23:55:00,69.1,63.3,29.82,North,0,0.0,0.0,82,0.00,,,0.00,WUHU21623XXSP,2013-07-23 03:55:00,